Time,TemperatureF,DewpointF,PressureIn,WindDirection,WindDirectionDegrees,WindSpeedMPH,WindSpeedGustMPH,Humidity,HourlyPrecipIn,Conditions,Clouds,dailyrainin,SoftwareType,DateUTC
2013-11-20 00:00:00,36.0,-99.9,-100.00,North,-999,-999.0,-999.0,-999,0.00,,,0.00,,2013-11-20 06:00:00,
2013-11-20 00:52:00,36.0,-99.9,-100.00,North,-999,-999.0,-999.0,-999,0.00,,,0.00,,2013-11-20 06:52:00,
2013-11-20 01:00:00,35.0,-99.9,-100.00,North,-999,-999.0,-999.0,-999,0.00,,,0.00,,2013-11-20 07:00:00,
2013-11-20 01:52:00,35.0,-99.9,-100.00,North,-999,-999.0,-999.0,-999,0.00,,,0.00,,2013-11-20 07:52:00,
2013-11-20 02:00:00,35.0,-99.9,-100.00,North,-999,-999.0,-999.0,-999,0.00,,,0.00,,2013-11-20 08:00:00,
2013-11-20 02:52:00,35.0,-99.9,-100.00,North,-999,-999.0,-999.0,-999,0.00,,,0.00,,2013-11-20 08:52:00,
2013-11-20 04:00:00,36.0,-99.9,-100.00,North,-999,-999.0,-999.0,-999,0.00,,,0.00,,2013-11-20 10:00:00,
2013-11-20 04:53:00,36.0,-99.9,-100.00,North,-999,-999.0,-999.0,-999,0.00,,,0.00,,2013-11-20 10:53:00,
2013-11-20 05:00:00,37.0,-99.9,-100.00,North,-999,-999.0,-999.0,-999,0.00,,,0.00,,2013-11-20 11:00:00,
2013-11-20 05:52:00,37.0,-99.9,-100.00,North,-999,-999.0,-999.0,-999,0.00,,,0.00,,2013-11-20 11:52:00,
2013-11-20 07:00:00,35.0,-99.9,-100.00,North,-999,-999.0,-999.0,-999,0.00,,,0.00,,2013-11-20 13:00:00,
2013-11-20 07:52:00,35.0,-99.9,-100.00,North,-999,-999.0,-999.0,-999,0.00,,,0.00,,2013-11-20 13:52:00,
2013-11-20 10:30:00,39.0,-99.9,-100.00,North,-999,-999.0,-999.0,-999,0.00,,,0.00,,2013-11-20 16:30:00,
2013-11-20 11:00:00,40.0,-99.9,-100.00,North,-999,-999.0,-999.0,-999,0.00,,,0.00,,2013-11-20 17:00:00,
2013-11-20 11:22:00,39.0,-99.9,-100.00,North,-999,-999.0,-999.0,-999,0.00,,,0.00,,2013-11-20 17:22:00,
2013-11-20 11:52:00,40.0,-99.9,-100.00,North,-999,-999.0,-999.0,-999,0.00,,,0.00,,2013-11-20 17:52:00,
2013-11-20 12:00:00,40.0,-99.9,-100.00,North,-999,-999.0,-999.0,-999,0.00,,,0.00,,2013-11-20 18:00:00,
2013-11-20 12:30:00,40.0,-99.9,-100.00,North,-999,-999.0,-999.0,-999,0.01,,,0.01,,2013-11-20 18:30:00,
2013-11-20 12:52:00,40.0,-99.9,-100.00,North,-999,-999.0,-999.0,-999,0.00,,,0.00,,2013-11-20 18:52:00,
2013-11-20 13:00:00,40.0,-99.9,-100.00,North,-999,-999.0,-999.0,-999,0.03,,,0.03,,2013-11-20 19:00:00,
2013-11-20 13:22:00,40.0,-99.9,-100.00,North,-999,-999.0,-999.0,-999,0.01,,,0.01,,2013-11-20 19:22:00,
2013-11-20 13:30:00,40.0,-99.9,-100.00,North,-999,-999.0,-999.0,-999,0.07,,,0.08,,2013-11-20 19:30:00,
2013-11-20 13:52:00,40.0,-99.9,-100.00,North,-999,-999.0,-999.0,-999,0.03,,,0.03,,2013-11-20 19:52:00,
2013-11-20 14:22:00,40.0,-99.9,-100.00,North,-999,-999.0,-999.0,-999,0.07,,,0.08,,2013-11-20 20:22:00,
2013-11-20 17:00:00,40.0,-99.9,-100.00,North,-999,-999.0,-999.0,-999,0.00,,,0.13,,2013-11-20 23:00:00,
2013-11-20 17:30:00,41.0,-99.9,-100.00,North,-999,-999.0,-999.0,-999,0.00,,,-99.99,,2013-11-20 23:30:00,
2013-11-20 17:53:00,40.0,-99.9,-100.00,North,-999,-999.0,-999.0,-999,0.00,,,0.13,,2013-11-20 23:53:00,
2013-11-20 18:22:00,41.0,-99.9,-100.00,North,-999,-999.0,-999.0,-999,0.00,,,-99.99,,2013-11-21 00:22:00,
2013-11-20 19:00:00,42.0,-99.9,-100.00,North,-999,-999.0,-999.0,-999,0.00,,,0.13,,2013-11-21 01:00:00,
2013-11-20 19:52:00,42.0,-99.9,-100.00,North,-999,-999.0,-999.0,-999,0.00,,,0.13,,2013-11-21 01:52:00,
2013-11-20 22:00:00,44.0,-99.9,-100.00,North,-999,-999.0,-999.0,-999,0.00,,,0.13,,2013-11-21 04:00:00,
2013-11-20 22:53:00,44.0,-99.9,-100.00,North,-999,-999.0,-999.0,-999,0.00,,,0.13,,2013-11-21 04:53:00,